When you browse on this site, cookies collect data to enhance your experience and personalize the content and advertising you see.
Visit our Privacy Policy to learn more. By continuing to use the site, you agree to this use of cookies and data.
  • In Latvia
  • List of Countries
  • For 7 days
  • Water Temperature
  • Weather Map
  • Weather Widgets
  • user-avatar
    Login

    Hourly Weather Sevan

    Today, 17 October, Thursday

    Time Temperature Precipitation Wind Pressure Humidity
    00:00 +14°C° 0 mm 2 mps 645 mmHg 31%
    01:00 +13°C° 0 mm 1 mps 645 mmHg 31%
    02:00 +13°C° 0 mm 1 mps 645 mmHg 32%
    03:00 +13°C° 0 mm 1 mps 645 mmHg 33%
    04:00 +12°C° 0 mm 1 mps 645 mmHg 33%
    05:00 +12°C° 0 mm 1 mps 645 mmHg 33%
    06:00 +12°C° 0 mm 1 mps 645 mmHg 33%
    07:00 +14°C° 0 mm 1 mps 646 mmHg 28%
    08:00 +18°C° 0 mm 1 mps 647 mmHg 23%
    09:00 +20°C° 0 mm 1 mps 648 mmHg 19%
    10:00 +21°C° 0 mm 1 mps 648 mmHg 18%
    11:00 +21°C° 0 mm 2 mps 648 mmHg 17%
    12:00 +23°C° 0 mm 2 mps 648 mmHg 15%
    13:00 +23°C° 0 mm 2 mps 648 mmHg 15%
    14:00 +23°C° 0 mm 2 mps 647 mmHg 14%
    15:00 +24°C° 0 mm 2 mps 647 mmHg 14%
    16:00 +21°C° 0 mm 1 mps 646 mmHg 17%
    17:00 +19°C° 0 mm 1 mps 646 mmHg 19%
    18:00 +15°C° 0 mm 0 mps 645 mmHg 22%
    19:00 +15°C° 0 mm 1 mps 645 mmHg 22%
    20:00 +15°C° 0 mm 1 mps 645 mmHg 22%
    21:00 +15°C° 0 mm 2 mps 645 mmHg 23%
    22:00 +15°C° 0 mm 2 mps 645 mmHg 24%
    23:00 +14°C° 0 mm 2 mps 645 mmHg 26%

    Tomorrow, 18 October, Friday

    Time Temperature Precipitation Wind Pressure Humidity
    00:00 +14°C° 0 mm 2 mps 645 mmHg 27%
    01:00 +13°C° 0 mm 1 mps 645 mmHg 27%
    02:00 +13°C° 0 mm 1 mps 645 mmHg 27%
    03:00 +13°C° 0 mm 1 mps 645 mmHg 27%
    04:00 +13°C° 0 mm 1 mps 644 mmHg 27%
    05:00 +12°C° 0 mm 1 mps 644 mmHg 27%
    06:00 +12°C° 0 mm 1 mps 644 mmHg 27%
    07:00 +14°C° 0 mm 1 mps 645 mmHg 24%
    08:00 +18°C° 0 mm 1 mps 645 mmHg 22%
    09:00 +20°C° 0 mm 1 mps 646 mmHg 19%
    10:00 +20°C° 0 mm 2 mps 646 mmHg 19%
    11:00 +21°C° 0 mm 2 mps 646 mmHg 18%
    12:00 +23°C° 0 mm 2 mps 646 mmHg 18%
    13:00 +23°C° 0 mm 2 mps 646 mmHg 18%
    14:00 +23°C° 0 mm 2 mps 645 mmHg 19%
    15:00 +24°C° 0 mm 2 mps 645 mmHg 20%
    16:00 +22°C° 0 mm 1 mps 644 mmHg 23%
    17:00 +19°C° 0 mm 1 mps 644 mmHg 26%
    18:00 +15°C° 0 mm 0 mps 643 mmHg 30%
    19:00 +16°C° 0 mm 1 mps 643 mmHg 30%
    20:00 +16°C° 0 mm 1 mps 643 mmHg 31%
    21:00 +15°C° 0 mm 1 mps 644 mmHg 32%
    22:00 +15°C° 0 mm 1 mps 644 mmHg 33%
    23:00 +15°C° 0 mm 1 mps 643 mmHg 34%

    Day after tomorrow, 19 October, Saturday

    Time Temperature Precipitation Wind Pressure Humidity
    00:00 +14°C° 0 mm 1 mps 643 mmHg 35%
    01:00 +14°C° 0 mm 1 mps 643 mmHg 37%
    02:00 +14°C° 0 mm 1 mps 643 mmHg 38%
    03:00 +13°C° 0 mm 1 mps 643 mmHg 39%
    04:00 +13°C° 0 mm 1 mps 643 mmHg 40%
    05:00 +13°C° 0 mm 1 mps 643 mmHg 41%
    06:00 +13°C° 0 mm 1 mps 643 mmHg 42%
    07:00 +15°C° 0 mm 1 mps 644 mmHg 37%
    08:00 +18°C° 0 mm 1 mps 645 mmHg 33%
    09:00 +21°C° 0 mm 1 mps 645 mmHg 29%
    10:00 +21°C° 0 mm 1 mps 645 mmHg 28%
    11:00 +21°C° 0 mm 2 mps 645 mmHg 27%
    12:00 +23°C° 0 mm 2 mps 645 mmHg 26%
    13:00 +23°C° 0 mm 2 mps 645 mmHg 26%
    14:00 +24°C° 0 mm 2 mps 645 mmHg 26%
    15:00 +24°C° 0 mm 1 mps 644 mmHg 26%
    16:00 +22°C° 0 mm 1 mps 644 mmHg 30%
    17:00 +20°C° 0 mm 1 mps 644 mmHg 34%
    18:00 +16°C° 0 mm 0 mps 643 mmHg 38%
    19:00 +18°C° 0 mm 1 mps 644 mmHg 40%
    20:00 +16°C° 0 mm 1 mps 644 mmHg 42%
    21:00 +16°C° 0 mm 2 mps 644 mmHg 43%
    22:00 +16°C° 0 mm 2 mps 644 mmHg 45%
    23:00 +15°C° 0 mm 2 mps 644 mmHg 47%

    20 October, Sunday

    Time Temperature Precipitation Wind Pressure Humidity
    00:00 +15°C° 0 mm 2 mps 644 mmHg 50%
    01:00 +14°C° 0 mm 2 mps 644 mmHg 52%
    02:00 +14°C° 0 mm 2 mps 644 mmHg 54%
    03:00 +13°C° 0 mm 1 mps 644 mmHg 56%
    04:00 +13°C° 0 mm 1 mps 644 mmHg 57%
    05:00 +13°C° 0 mm 1 mps 644 mmHg 57%
    06:00 +13°C° 0 mm 1 mps 644 mmHg 58%
    07:00 +15°C° 0 mm 1 mps 645 mmHg 52%
    08:00 +18°C° 0 mm 1 mps 645 mmHg 47%
    09:00 +20°C° 0 mm 1 mps 646 mmHg 41%
    10:00 +19°C° 0.1 mm 2 mps 646 mmHg 39%
    11:00 +20°C° 0.1 mm 2 mps 646 mmHg 37%
    12:00 +21°C° 0.1 mm 2 mps 646 mmHg 35%
    13:00 +21°C° 0.1 mm 2 mps 646 mmHg 35%
    14:00 +21°C° 0.1 mm 2 mps 645 mmHg 35%
    15:00 +21°C° 0.1 mm 2 mps 645 mmHg 36%
    16:00 +20°C° 0.1 mm 2 mps 645 mmHg 41%
    17:00 +18°C° 0.1 mm 2 mps 644 mmHg 47%
    18:00 +18°C° 0.1 mm 1 mps 644 mmHg 53%
    19:00 +16°C° 0 mm 2 mps 644 mmHg 55%
    20:00 +16°C° 0 mm 2 mps 645 mmHg 57%
    21:00 +16°C° 0 mm 3 mps 645 mmHg 60%
    22:00 +14°C° 0 mm 3 mps 645 mmHg 61%
    23:00 +14°C° 0 mm 3 mps 645 mmHg 63%

    21 October, Monday

    Time Temperature Precipitation Wind Pressure Humidity
    00:00 +14°C° 0 mm 3 mps 645 mmHg 64%
    01:00 +14°C° 0 mm 2 mps 644 mmHg 67%
    02:00 +14°C° 0 mm 2 mps 644 mmHg 69%
    03:00 +13°C° 0 mm 2 mps 644 mmHg 71%
    04:00 +13°C° 0 mm 2 mps 644 mmHg 72%
    05:00 +12°C° 0 mm 2 mps 644 mmHg 74%
    06:00 +12°C° 0 mm 2 mps 644 mmHg 75%
    07:00 +13°C° 0 mm 2 mps 645 mmHg 69%
    08:00 +15°C° 0 mm 2 mps 645 mmHg 63%
    09:00 +16°C° 0 mm 1 mps 646 mmHg 56%
    10:00 +18°C° 0.2 mm 2 mps 646 mmHg 52%
    11:00 +19°C° 0.2 mm 2 mps 646 mmHg 48%
    12:00 +20°C° 0.2 mm 2 mps 646 mmHg 44%
    13:00 +20°C° 0.4 mm 2 mps 645 mmHg 43%
    14:00 +20°C° 0.4 mm 2 mps 645 mmHg 43%
    15:00 +20°C° 0.4 mm 2 mps 645 mmHg 42%
    16:00 +18°C° 0.1 mm 2 mps 644 mmHg 50%
    17:00 +17°C° 0.1 mm 2 mps 644 mmHg 58%
    18:00 +15°C° 0.1 mm 2 mps 643 mmHg 65%
    19:00 +14°C° 0 mm 2 mps 643 mmHg 66%
    20:00 +13°C° 0 mm 3 mps 644 mmHg 67%
    21:00 +13°C° 0 mm 3 mps 644 mmHg 68%
    22:00 +12°C° 0 mm 3 mps 644 mmHg 69%
    23:00 +12°C° 0 mm 3 mps 644 mmHg 70%

    22 October, Tuesday

    Time Temperature Precipitation Wind Pressure Humidity
    00:00 +11°C° 0 mm 3 mps 643 mmHg 71%
    01:00 +11°C° 0 mm 3 mps 643 mmHg 72%
    02:00 +12°C° 0 mm 2 mps 643 mmHg 74%
    03:00 +10°C° 0 mm 2 mps 643 mmHg 76%
    04:00 +10°C° 0 mm 2 mps 643 mmHg 76%
    05:00 +10°C° 0 mm 2 mps 643 mmHg 76%
    06:00 +11°C° 0 mm 1 mps 643 mmHg 76%
    07:00 +12°C° 0 mm 1 mps 644 mmHg 70%
    08:00 +14°C° 0 mm 1 mps 644 mmHg 64%
    09:00 +15°C° 0 mm 1 mps 645 mmHg 57%
    10:00 +16°C° 0 mm 1 mps 645 mmHg 54%
    11:00 +17°C° 0 mm 2 mps 645 mmHg 50%
    12:00 +18°C° 0 mm 2 mps 645 mmHg 46%
    13:00 +19°C° 0.2 mm 2 mps 645 mmHg 44%
    14:00 +19°C° 0.2 mm 2 mps 645 mmHg 43%
    15:00 +19°C° 0.2 mm 2 mps 644 mmHg 41%
    16:00 +19°C° 0.2 mm 1 mps 644 mmHg 48%
    17:00 +16°C° 0.2 mm 1 mps 643 mmHg 54%
    18:00 +13°C° 0.2 mm 0 mps 643 mmHg 60%
    19:00 +14°C° 0.1 mm 1 mps 643 mmHg 61%
    20:00 +13°C° 0.1 mm 1 mps 643 mmHg 63%
    21:00 +13°C° 0.1 mm 1 mps 643 mmHg 64%
    22:00 +13°C° 0 mm 1 mps 643 mmHg 65%
    23:00 +12°C° 0 mm 1 mps 643 mmHg 66%
    Show more